Wind_Speed
86 86 87 87 87 88 88 89 89 89 90 90 91 91 91 91 92 92 92 92 93 93 93 93 93 93 94 94 94 94 94 95 95 95 96 97 97 98 99 99 100 101 102 103 103 104 104 105 105 105 106 106 107 107 107 107 108 108 109 109 109 110 110 111 111 111 111 112 112 112 112 112 112 112 112 112 112 112 112 112 111 111 111 111 111 112
87 87 88 88 88 89 89 90 90 90 90 91 91 92 92 92 93 93 93 93 93 94 94 94 94 94 94 95 95 95 95 96 96 97 97 98 98 99 100 101 102 103 104 105 105 106 106 107 107 108 108 108 109 109 109 109 110 110 110 111 111 111 112 112 112 112 112 112 112 112 112 112 112 111 111 111 111 110 110 110 110 110 110 110 110 111
88 88 88 89 89 89 90 90 91 91 91 91 92 92 92 93 93 93 94 94 94 94 94 95 95 95 95 95 96 96 96 97 97 98 98 99 100 101 101 102 103 105 106 107 107 108 109 109 110 110 110 111 111 111 111 112 112 112 112 113 113 113 113 113 113 113 113 113 113 112 112 112 111 111 110 110 109 109 109 109 109 109 109 109 110 110
88 89 89 89 90 90 90 91 91 91 91 91 92 92 92 93 93 94 94 94 95 95 95 96 96 96 96 96 97 97 97 98 98 99 100 100 101 102 103 104 105 106 107 108 109 110 110 111 112 112 113 113 113 113 114 114 114 114 114 115 115 115 115 115 115 115 114 114 113 113 112 112 111 110 110 109 109 108 108 108 108 108 108 109 109 109
89 89 89 90 90 90 91 91 91 91 91 91 92 92 92 93 93 94 94 95 95 95 96 96 97 97 97 97 98 98 98 99 99 100 101 101 102 103 104 105 106 107 108 109 110 111 112 112 113 114 114 115 115 116 116 116 117 117 117 117 117 117 117 117 117 116 116 115 114 114 113 112 111 110 110 109 109 109 109 109 109 109 109 109 109 110
89 89 89 90 90 90 91 91 91 91 91 92 92 92 93 93 93 94 94 95 95 96 96 97 97 97 98 98 98 99 99 100 100 101 101 102 103 104 105 105 107 108 109 110 111 112 112 113 114 115 116 116 117 118 118 119 119 119 119 119 119 119 119 119 118 118 117 116 115 115 114 113 112 111 111 110 110 110 110 110 110 110 110 110 110 110
89 89 89 90 90 90 91 91 91 91 91 91 92 92 93 93 94 94 95 95 96 96 97 97 98 98 98 99 99 99 100 100 101 101 102 103 103 104 105 106 107 108 109 110 111 112 113 114 115 116 117 118 118 119 120 121 121 121 121 121 121 121 121 120 120 119 118 117 117 116 115 114 113 113 112 112 112 112 111 111 111 111 111 112 112 112
89 90 90 90 90 90 91 91 91 91 91 92 92 93 93 94 94 95 95 96 96 97 97 98 98 98 99 99 99 100 100 100 101 101 102 103 103 104 105 106 107 108 109 110 111 112 113 114 115 116 117 119 120 121 121 122 123 123 123 123 123 123 122 122 121 120 119 118 118 117 116 115 115 114 114 114 113 113 113 113 113 113 113 113 113 113
89 90 90 90 90 91 91 92 92 92 92 92 93 93 94 94 95 95 96 97 97 98 98 98 98 99 99 99 100 100 100 101 101 102 102 103 103 104 105 106 107 108 109 110 111 112 114 115 116 117 118 119 120 121 122 123 124 124 124 124 124 124 123 123 122 121 120 119 119 118 117 117 116 116 115 115 115 114 114 114 114 114 114 114 114 114
90 90 90 91 91 91 91 92 92 93 93 93 93 94 94 95 95 96 97 97 98 98 98 98 99 99 100 100 100 100 101 101 101 102 102 103 103 104 105 106 107 108 109 110 111 112 114 115 116 118 119 120 121 122 123 124 124 125 125 125 124 124 124 123 122 122 121 120 119 119 118 118 117 117 116 116 116 115 115 114 114 114 114 114 114 114
90 90 90 91 91 92 92 92 93 94 94 94 95 95 95 96 96 96 97 98 98 99 99 99 99 99 100 100 100 101 101 101 101 102 102 103 103 104 105 106 107 108 109 110 111 113 114 116 117 118 119 121 122 123 123 124 125 125 125 125 125 124 124 123 123 122 121 121 120 119 119 118 118 117 117 116 116 115 115 115 114 114 114 114 113 113
91 91 91 91 92 92 93 93 94 94 95 95 96 96 97 97 97 97 97 98 98 99 99 99 99 100 100 100 100 101 101 101 101 101 102 102 103 104 105 106 107 108 109 110 112 113 115 116 118 119 120 121 122 123 124 124 125 125 125 125 125 124 124 123 123 122 121 121 120 119 119 118 118 117 116 116 115 115 114 114 113 113 113 113 112 112
91 91 92 92 93 93 94 94 95 95 96 96 96 97 97 98 98 98 98 98 99 99 99 99 99 100 100 100 100 100 100 100 100 101 101 102 103 104 105 106 107 108 109 111 112 114 116 117 118 119 121 122 123 123 124 124 125 125 125 124 124 124 123 123 122 122 121 120 120 119 118 118 117 116 116 115 115 114 113 113 112 112 112 111 111 111
92 92 93 93 94 94 95 95 95 96 97 97 97 98 98 98 98 98 98 99 99 99 98 98 99 99 100 100 100 100 100 100 100 100 101 102 103 104 105 106 107 109 110 112 113 115 117 118 119 120 121 122 123 124 124 124 124 124 124 124 123 123 123 122 122 121 121 120 119 118 117 117 116 115 114 114 113 113 112 111 111 110 110 109 109 109
93 93 93 94 94 95 95 96 96 97 97 98 98 98 98 99 99 99 99 99 99 99 98 98 98 99 99 100 100 100 100 100 100 100 101 102 103 104 105 106 108 110 111 112 114 116 117 119 120 121 122 122 123 123 124 124 124 123 123 123 122 122 122 121 121 120 119 119 118 117 116 115 114 113 112 112 111 110 110 109 108 108 107 107 106 106
93 94 94 95 95 96 96 96 97 97 98 98 98 98 99 99 99 99 98 98 98 98 98 98 98 98 99 99 99 99 99 100 100 100 101 102 103 105 106 107 109 110 112 113 115 117 118 119 120 121 122 122 123 123 123 123 123 122 122 121 121 121 120 120 119 119 118 117 116 115 114 113 112 111 110 109 108 107 107 106 105 105 104 104 103 103
94 94 95 95 96 96 97 97 97 98 98 98 99 99 99 99 99 99 98 98 98 97 97 97 97 97 98 99 99 99 99 99 100 100 101 102 103 105 107 108 109 111 113 114 116 117 118 119 120 121 121 122 122 122 122 122 121 121 120 120 119 119 118 118 117 116 116 115 114 112 111 110 109 108 107 106 105 104 103 102 102 101 101 100 100 100
94 95 95 95 96 97 97 98 98 98 98 98 99 99 99 98 98 98 98 97 97 97 97 96 96 97 97 98 99 99 99 99 100 101 101 102 104 106 108 109 110 112 113 115 116 117 118 119 119 120 120 120 121 120 120 120 119 119 118 118 117 117 116 116 115 114 113 112 110 109 108 106 105 104 103 102 101 100 99 98 98 98 97 97 97 96
95 95 95 96 96 97 97 98 98 98 98 98 98 98 98 98 98 97 97 97 96 96 96 96 96 96 97 97 99 100 100 100 100 101 102 103 104 107 109 110 111 112 114 115 116 117 118 118 119 119 119 119 118 118 118 118 117 117 116 116 115 114 113 113 112 111 109 108 107 105 104 103 101 100 99 98 97 96 95 94 94 94 94 94 94 93
95 95 96 96 97 97 98 98 98 98 98 98 98 97 97 97 97 97 96 96 96 96 96 96 96 96 97 97 98 100 100 100 101 102 102 103 105 107 109 110 112 113 114 115 116 116 117 117 117 116 116 116 116 115 115 115 114 114 113 113 112 111 110 109 108 107 106 104 103 102 100 99 97 96 95 94 93 92 91 91 91 91 91 90 90 90
95 96 96 96 97 97 98 98 98 98 98 97 97 97 96 96 96 96 96 96 96 96 95 95 96 96 96 97 98 100 101 101 102 103 104 105 106 108 110 111 111 112 113 114 115 115 115 114 114 114 113 113 113 113 112 112 111 111 110 109 109 108 107 106 105 103 102 101 99 98 96 95 94 93 92 90 89 89 88 88 88 87 87 87 87 87
95 96 96 96 96 97 97 98 98 97 97 97 96 96 96 96 96 95 96 95 95 95 95 95 95 96 97 98 99 101 102 102 103 104 105 105 107 108 110 110 111 111 112 112 113 113 112 111 111 110 110 110 109 109 109 109 108 107 106 106 105 104 103 102 101 100 98 97 96 94 93 92 91 89 88 87 86 86 85 85 85 85 85 85 85 85
95 95 96 96 96 96 97 97 97 97 97 96 96 96 96 95 95 95 95 95 95 95 95 95 96 96 97 98 99 101 102 103 104 104 105 106 107 108 110 110 110 110 110 110 110 109 108 107 107 106 106 106 106 106 106 105 104 104 103 102 101 100 100 98 97 96 95 93 92 91 90 89 87 86 85 84 84 83 83 82 82 82 82 82 82 82
95 95 95 95 96 96 96 96 97 97 96 96 96 96 96 95 95 95 95 95 95 95 95 95 96 96 97 98 99 101 102 103 104 105 105 106 107 108 109 109 108 108 108 107 106 105 104 103 103 103 103 103 103 103 102 102 101 100 99 99 98 97 96 95 94 92 91 90 89 88 86 85 84 84 83 82 81 81 80 80 80 80 80 80 80 80
94 94 95 95 95 96 96 96 96 97 96 96 96 96 96 95 95 95 95 95 95 95 95 95 96 97 98 98 99 100 102 103 104 104 105 105 106 107 107 107 106 105 105 104 102 101 100 100 100 100 100 100 100 100 99 98 97 97 96 95 95 94 93 91 90 89 88 87 85 85 84 83 82 81 80 80 79 79 78 78 78 78 78 78 78 78
94 94 95 95 95 96 96 96 97 97 96 96 96 96 95 95 95 95 95 95 95 95 95 95 96 97 97 98 98 99 101 102 103 103 104 104 104 105 105 105 104 102 101 100 98 97 97 97 97 97 97 97 97 97 96 95 94 93 93 92 91 90 89 88 87 86 84 84 83 82 81 80 80 79 78 78 77 77 77 76 76 76 76 76 76 77
94 95 95 95 96 96 96 96 96 96 96 96 96 95 95 95 94 95 95 95 95 95 95 96 96 97 97 97 97 98 100 101 102 103 103 102 102 103 103 103 101 100 98 96 95 94 94 94 95 95 95 95 94 94 93 92 91 91 90 89 88 87 86 85 84 83 82 81 80 80 79 78 78 77 77 76 76 75 75 75 75 75 75 75 75 75
95 95 95 96 96 96 96 96 96 96 96 96 95 95 94 94 94 95 95 95 95 95 95 96 96 96 96 96 96 97 98 99 100 101 101 101 100 100 101 100 99 97 95 93 92 92 92 92 93 93 93 92 92 91 90 90 89 88 87 86 86 84 83 82 81 80 79 79 78 78 77 76 76 75 75 75 74 74 74 73 73 73 73 74 74 74
95 95 95 95 96 96 96 96 96 95 95 95 95 95 94 94 94 95 95 95 95 95 95 96 96 96 95 95 95 96 96 97 99 100 99 99 98 99 98 97 96 94 92 90 89 89 90 91 91 91 91 90 90 89 88 87 86 85 85 84 83 82 81 80 79 78 77 77 76 76 75 75 74 74 74 73 73 73 73 73 72 72 73 73 73 74
95 95 95 95 95 95 95 95 95 95 95 95 95 95 95 95 95 95 95 95 95 95 95 95 96 95 95 94 94 94 95 96 97 98 97 97 96 96 96 94 93 91 90 88 87 87 88 89 89 89 89 89 88 87 86 85 84 83 82 81 80 80 79 78 77 76 76 75 75 74 74 74 73 73 73 72 72 72 72 72 72 72 72 72 73 73
94 95 95 95 95 95 95 96 96 95 95 95 95 95 95 95 95 95 95 95 95 95 95 95 95 95 94 94 93 94 94 95 96 96 95 94 94 94 93 92 91 90 89 87 86 86 87 87 87 88 88 87 86 85 84 83 82 81 80 79 79 78 77 76 76 75 75 74 74 73 73 73 72 72 72 72 71 71 71 71 71 71 72 72 72 72
95 95 95 96 96 96 96 96 96 96 96 96 96 95 95 95 95 95 95 95 95 95 95 95 95 94 94 93 92 92 93 94 95 95 94 93 92 92 91 90 89 89 88 86 85 85 85 85 85 86 86 86 85 84 83 81 80 79 78 78 77 76 76 75 75 74 74 73 73 73 72 72 72 71 71 71 71 71 71 71 71 71 71 71 71 72
95 96 96 97 97 97 97 97 97 97 97 96 96 95 95 95 94 94 94 94 94 94 94 95 94 94 93 92 92 91 92 93 93 93 92 92 91 90 89 89 88 88 87 86 85 84 83 83 83 84 84 84 84 83 82 80 79 78 77 76 76 75 75 74 74 74 73 73 73 72 72 72 71 71 71 71 71 71 71 71 71 70 70 70 70 70
97 98 98 98 99 98 98 98 97 97 96 96 95 95 94 94 94 94 94 94 94 94 94 94 94 93 93 92 91 91 91 92 92 92 91 91 90 89 89 88 88 87 87 85 84 83 82 82 82 82 82 82 82 81 80 79 78 77 76 75 75 74 74 73 73 73 73 73 72 72 72 72 72 71 71 71 71 71 71 70 70 70 69 69 69 68
99 99 100 100 100 99 99 98 97 97 96 95 94 94 93 93 93 93 93 93 94 93 93 93 93 92 92 91 91 91 91 92 92 91 91 90 89 89 88 88 87 87 86 85 84 83 82 81 81 81 81 81 81 80 79 78 77 76 75 74 74 73 73 73 73 73 73 73 72 72 72 72 72 72 71 71 71 70 70 70 69 69 68 67 67 66
101 101 101 101 100 100 99 98 97 96 95 94 93 93 92 92 92 93 93 93 93 93 93 92 91 91 90 90 90 91 91 92 91 91 90 89 89 88 88 88 87 86 85 84 83 82 81 81 80 80 80 80 80 79 78 77 76 75 74 74 73 73 72 72 72 72 72 73 73 73 72 72 72 72 71 71 71 70 70 69 68 68 67 66 65 64
102 102 102 101 100 99 99 98 96 95 94 93 93 92 92 92 92 92 92 92 92 92 91 91 91 90 90 89 90 90 91 91 91 90 89 88 88 87 87 87 86 85 84 83 82 81 80 80 80 79 79 79 78 78 77 76 75 74 74 73 73 72 72 72 72 72 72 72 73 73 73 72 72 72 71 71 70 70 69 68 67 66 65 65 64 63
103 102 102 101 99 98 97 96 95 94 93 92 92 91 91 91 91 91 91 91 91 91 90 90 90 90 90 90 90 90 90 90 90 89 88 87 87 86 86 86 85 84 83 82 81 80 79 79 79 79 78 78 77 76 76 75 74 74 74 73 73 72 72 72 72 72 72 72 72 73 72 72 72 71 71 70 69 68 68 67 66 65 64 63 62 62
103 102 101 99 98 97 96 95 94 92 92 91 91 91 90 90 90 90 90 90 90 89 89 90 90 90 90 90 90 90 90 90 89 88 87 86 86 85 85 84 84 83 82 81 80 79 78 78 78 77 77 77 76 76 75 74 74 73 73 73 73 72 72 72 72 72 72 72 72 72 72 72 71 70 70 69 68 67 66 65 64 64 63 62 61 61
102 101 99 98 97 95 94 93 92 91 91 90 90 90 90 90 89 89 89 89 89 89 89 89 89 89 89 90 90 90 90 89 88 87 86 85 84 84 83 83 83 82 81 80 79 78 77 77 77 76 76 76 75 75 74 73 73 73 73 73 73 73 72 72 72 72 72 72 72 72 71 71 70 69 68 67 66 65 64 64 63 62 61 61 60 59
101 99 98 97 95 94 93 92 91 91 90 90 90 90 89 89 88 88 88 88 88 88 88 88 88 89 89 89 89 89 89 88 87 86 85 84 83 83 82 82 81 81 80 79 78 77 76 76 75 75 75 75 74 74 73 73 72 72 72 73 73 73 73 72 72 72 72 71 71 71 70 70 69 68 67 66 65 64 62 62 61 60 60 59 58 58
100 98 97 96 94 93 92 91 91 90 90 89 89 89 88 88 88 88 88 89 89 90 89 89 89 89 89 89 89 88 87 86 85 84 83 83 82 82 81 81 80 80 79 78 78 77 76 75 74 74 74 74 73 73 73 73 72 72 72 73 73 73 73 73 72 71 71 70 70 69 69 68 68 67 66 65 63 62 61 60 59 59 58 58 57 56
99 98 96 95 94 93 92 91 90 90 89 89 88 88 88 87 87 88 89 90 90 90 89 89 88 89 89 89 88 87 86 85 84 83 82 81 81 81 80 80 79 79 78 77 77 76 75 74 73 73 73 73 73 73 73 73 72 72 72 72 72 73 73 73 72 71 70 69 69 68 67 67 66 65 64 63 62 60 59 58 57 57 57 56 56 55
98 97 96 94 93 92 91 91 90 89 89 88 88 88 88 88 88 88 89 90 90 90 89 88 87 87 87 87 86 86 85 84 83 82 81 80 80 80 79 79 79 78 77 76 76 75 74 73 73 73 72 72 72 72 72 72 72 72 72 72 72 72 72 71 71 70 69 68 67 67 66 65 65 64 63 62 60 59 57 56 56 56 56 55 55 54
98 96 95 94 93 92 91 90 89 89 88 88 88 88 88 88 89 89 90 90 89 89 88 86 86 85 85 84 84 84 83 83 82 81 80 79 79 79 78 78 78 77 76 75 75 74 73 73 72 72 72 72 72 72 72 72 72 72 72 71 71 70 70 69 68 68 67 66 66 65 64 63 63 62 61 60 59 57 56 55 55 55 55 55 54 54
97 95 94 93 92 91 90 89 89 88 88 88 88 89 89 89 89 89 89 89 88 87 86 84 83 83 82 82 82 82 82 81 81 80 80 79 78 78 78 77 77 76 75 75 74 73 72 72 72 71 72 72 72 72 72 72 72 71 71 70 70 69 68 67 66 65 64 64 63 63 62 61 61 60 60 59 58 56 55 54 54 54 54 54 54 54
95 94 93 92 91 90 89 89 88 88 88 89 89 89 89 89 89 89 88 87 86 85 83 82 81 80 80 80 80 80 80 80 80 80 79 78 78 77 77 76 76 75 74 74 73 72 71 71 71 71 71 72 72 72 72 71 71 70 70 69 68 67 66 65 64 63 62 62 61 61 60 59 59 58 58 57 57 56 55 54 53 53 54 54 54 54
94 93 91 91 90 89 89 88 88 88 89 89 89 89 89 88 88 87 86 85 83 82 80 79 78 78 78 78 78 78 78 78 79 79 78 77 77 76 76 75 75 74 74 73 72 71 71 70 70 70 70 71 71 71 71 70 69 68 68 67 66 65 64 63 62 61 60 60 59 58 58 57 57 56 56 56 55 55 54 53 52 52 53 53 54 54
93 92 91 90 90 89 89 89 89 89 89 89 89 89 88 87 86 85 84 82 80 79 78 77 77 77 77 77 77 77 77 77 77 77 77 76 76 75 75 74 74 73 73 72 71 70 70 69 69 69 69 70 70 70 70 69 68 67 65 64 63 63 62 61 61 60 59 58 57 57 56 55 55 54 54 54 53 53 53 52 52 52 52 53 53 53
93 92 91 90 90 90 90 90 89 89 89 88 88 87 86 85 83 82 80 79 77 76 75 75 75 75 75 76 76 76 76 76 76 76 76 75 75 74 74 73 73 72 72 71 71 70 69 69 69 68 68 68 68 68 68 67 66 65 64 62 61 61 60 59 59 58 57 57 56 55 55 54 54 53 52 52 52 52 51 51 51 51 51 51 52 53
93 92 92 91 91 91 91 90 89 88 87 86 85 84 83 82 80 79 77 76 74 74 73 73 73 74 74 74 74 75 74 75 75 75 74 74 73 73 73 72 72 71 71 70 70 70 69 69 68 68 67 67 66 65 64 64 64 63 62 61 60 59 58 58 57 56 56 55 55 54 54 53 53 52 51 51 50 50 50 49 49 49 49 50 51 51
Wind_Direction
283 283 283 284 284 284 284 285 285 285 285 286 286 286 286 286 286 286 286 286 286 286 286 286 286 286 286 286 286 286 286 286 286 286 286 286 286 286 286 286 285 285 285 284 284 283 283 282 282 281 281 280 279 279 278 278 277 277 276 276 275 275 275 274 274 273 273 273 272 272 272 272 271 271 271 271 271 271 271 271 271 270 270 270 270 269
283 283 283 284 284 284 285 285 285 285 285 286 286 286 286 286 286 287 287 287 287 287 287 287 287 287 287 287 287 287 287 287 287 287 287 287 287 287 287 287 287 286 286 286 285 285 284 284 283 283 282 282 281 281 280 280 279 278 278 277 277 277 276 276 275 275 275 274 274 274 273 273 273 273 273 273 273 273 273 272 272 272 272 271 271 271
283 283 283 284 284 284 284 285 285 285 285 286 286 286 286 286 287 287 287 287 287 287 287 287 287 287 287 288 288 288 288 288 288 288 288 288 288 288 288 288 288 287 287 287 286 286 286 285 285 284 284 283 283 282 282 281 281 280 280 279 279 278 278 277 277 277 276 276 276 276 275 275 275 275 275 275 275 275 275 274 274 274 273 273 272 272
283 283 283 284 284 284 284 285 285 285 285 286 286 286 286 286 286 287 287 287 287 287 287 287 288 288 288 288 288 288 288 288 289 289 289 289 289 289 289 288 288 288 288 288 287 287 287 286 286 285 285 284 284 284 283 283 282 282 281 281 280 280 279 279 279 279 278 278 278 278 278 278 278 278 277 277 277 277 277 276 276 275 275 274 274 273
283 283 283 284 284 284 284 284 285 285 285 285 285 285 286 286 286 286 286 287 287 287 287 287 287 288 288 288 288 288 289 289 289 289 289 289 289 289 289 289 289 288 288 288 288 287 287 287 287 286 286 285 285 285 284 284 283 283 282 282 282 281 281 281 281 280 280 280 280 280 280 280 280 280 280 280 279 279 279 278 278 277 276 276 275 275
283 283 283 283 283 284 284 284 284 284 284 285 285 285 285 285 285 286 286 286 286 286 286 287 287 287 287 288 288 288 288 289 289 289 289 289 289 289 289 289 288 288 288 288 288 287 287 287 287 286 286 286 285 285 285 284 284 284 283 283 283 283 282 282 282 282 282 282 282 282 282 282 282 282 282 282 281 281 280 280 279 279 278 278 277 277
283 283 283 283 283 283 283 283 284 284 284 284 284 284 284 284 285 285 285 285 285 285 286 286 286 287 287 287 287 288 288 288 288 288 288 288 288 288 288 288 288 287 287 287 287 287 286 286 286 286 286 285 285 285 285 284 284 284 284 284 283 283 283 283 283 284 284 284 284 284 284 284 284 284 283 283 282 282 281 281 281 280 280 279 279 278
282 282 282 282 283 283 283 283 283 283 283 283 283 283 284 284 284 284 284 284 285 285 285 286 286 286 287 287 287 287 287 288 288 288 288 288 287 287 287 287 287 286 286 286 286 286 285 285 285 285 285 285 284 284 284 284 284 284 284 284 284 284 284 284 284 285 285 285 285 285 285 285 285 284 284 283 283 283 282 282 281 281 281 280 280 279
282 282 282 282 282 282 282 282 282 282 282 282 283 283 283 283 283 284 284 284 284 285 285 285 286 286 286 286 287 287 287 287 287 287 287 287 286 286 286 286 286 285 285 285 285 285 284 284 284 284 284 284 284 283 283 283 284 284 284 284 284 284 285 285 285 285 286 286 286 286 286 285 285 285 284 284 283 283 283 282 282 282 281 281 281 280
281 281 281 281 281 282 282 282 282 282 282 282 282 282 282 282 283 283 283 284 284 284 285 285 286 286 286 286 286 286 286 286 286 286 286 286 286 285 285 285 285 284 284 284 284 284 283 283 283 283 283 283 283 283 283 283 283 283 284 284 284 284 285 285 285 286 286 286 286 286 286 285 285 285 284 284 284 283 283 283 282 282 282 281 281 281
281 281 281 281 281 281 281 281 281 281 282 282 282 282 282 282 282 283 283 284 284 284 285 285 285 286 286 286 286 286 286 286 286 286 286 285 285 285 285 284 284 284 284 283 283 283 282 282 282 282 282 282 282 282 282 282 283 283 283 284 284 284 285 285 285 286 286 286 286 286 285 285 285 285 284 284 284 284 283 283 283 282 282 282 281 281
281 281 281 281 281 281 281 281 281 281 281 282 282 282 282 282 283 283 283 284 284 284 285 285 285 286 286 286 286 286 286 285 285 285 285 285 284 284 284 284 283 283 283 282 282 282 282 282 281 281 281 281 281 282 282 282 282 283 283 283 284 284 285 285 285 285 285 285 285 285 285 285 284 284 284 284 284 284 283 283 283 283 282 282 281 281
280 281 281 281 281 281 281 281 281 281 282 282 282 282 282 283 283 283 283 284 284 284 285 285 285 285 285 285 285 285 285 285 285 284 284 284 284 283 283 283 283 282 282 282 282 281 281 281 281 281 281 281 281 282 282 282 282 283 283 284 284 284 284 285 285 285 285 285 284 284 284 284 284 284 284 284 284 283 283 283 283 282 282 282 281 281
280 281 281 281 281 281 281 281 281 282 282 282 282 282 283 283 283 284 284 284 284 284 285 285 285 285 285 285 285 285 284 284 284 284 284 283 283 283 283 282 282 282 282 281 281 281 281 281 281 281 281 281 282 282 282 282 283 283 283 284 284 284 284 284 284 284 284 284 284 284 284 284 284 284 284 284 283 283 283 283 283 282 282 282 281 281
280 281 281 281 281 281 281 282 282 282 282 282 283 283 283 283 284 284 284 284 284 285 285 285 285 285 285 285 285 284 284 284 284 284 283 283 283 283 282 282 282 282 281 281 281 281 281 281 281 281 282 282 282 282 283 283 283 284 284 284 284 284 284 284 284 284 284 284 284 284 284 284 284 284 284 284 283 283 283 283 282 282 282 281 281 280
281 281 281 281 281 282 282 282 282 282 282 283 283 283 283 284 284 284 284 285 285 285 285 285 285 285 285 284 284 284 284 284 284 283 283 283 283 283 282 282 282 282 281 281 281 281 281 281 282 282 282 283 283 283 284 284 284 284 284 284 284 284 284 284 284 284 284 284 284 284 284 284 284 284 284 283 283 283 283 282 282 282 281 281 280 280
281 281 281 282 282 282 282 282 283 283 283 283 283 284 284 284 284 285 285 285 285 285 285 285 285 285 285 284 284 284 284 284 284 283 283 283 283 283 282 282 282 282 282 282 282 282 282 282 282 283 283 283 284 284 284 284 285 284 284 284 284 284 284 284 284 284 284 284 284 284 284 284 284 284 283 283 283 283 282 282 282 281 281 280 280 279
282 282 282 282 283 283 283 283 283 283 283 283 284 284 284 284 285 285 285 285 285 285 285 285 285 284 284 284 284 284 284 284 284 283 283 283 283 283 283 282 282 282 282 282 282 282 282 283 283 283 284 284 284 285 285 285 285 284 284 284 284 284 284 284 284 284 284 284 284 284 284 284 284 284 283 283 283 282 282 282 281 281 280 280 279 279
282 283 283 283 283 283 283 283 283 283 284 284 284 284 285 285 285 285 285 285 285 285 285 285 285 284 284 284 284 284 284 284 283 283 283 283 283 283 282 282 282 282 282 282 282 283 283 283 284 284 285 285 285 285 285 285 285 284 284 284 284 284 284 284 284 284 284 284 284 284 284 284 284 284 283 283 283 282 282 281 281 280 280 279 279 278
283 283 283 283 283 283 283 283 283 284 284 284 284 284 285 285 285 285 285 285 285 285 285 285 284 284 284 284 284 284 283 283 283 283 283 283 283 283 282 282 282 282 283 283 283 283 284 284 285 285 285 285 285 285 285 285 284 284 284 284 284 284 284 284 284 285 285 285 285 285 285 284 284 284 284 283 283 282 282 281 280 280 279 279 278 278
283 283 283 283 284 284 284 284 284 284 284 284 285 285 285 285 285 285 285 285 285 285 284 284 284 284 284 284 284 284 284 284 284 283 283 283 282 282 282 283 283 283 283 283 284 284 285 285 286 286 286 286 285 285 285 284 284 284 284 284 284 284 285 285 285 285 285 285 285 285 285 285 285 284 284 283 283 282 282 281 280 280 279 278 278 278
284 284 284 284 284 284 284 284 284 284 284 285 285 285 285 285 285 285 285 285 284 284 284 284 285 285 285 285 285 284 284 284 284 283 283 283 282 282 283 283 283 284 284 284 284 285 286 286 286 286 286 286 285 285 285 284 284 284 284 285 285 285 285 285 285 285 286 286 286 286 285 285 285 284 284 283 283 282 281 281 280 279 279 278 278 278
283 284 284 284 284 284 284 284 284 285 285 285 285 285 285 285 285 285 285 285 285 285 285 285 285 285 286 286 285 285 285 284 284 284 284 283 283 283 283 283 284 284 284 285 285 286 286 287 287 286 286 285 285 285 285 284 284 285 285 285 285 285 285 286 286 286 286 286 286 286 286 285 285 285 284 283 283 282 281 281 280 279 279 279 278 278
283 284 284 284 284 284 284 284 285 285 285 285 285 285 285 285 285 285 285 285 286 286 286 286 286 286 286 286 286 286 286 285 285 285 284 284 284 284 284 284 285 285 285 285 286 287 287 287 287 286 286 286 285 285 285 285 285 285 285 286 286 286 286 286 286 287 287 287 287 286 286 286 285 285 284 284 283 282 282 281 280 280 279 279 278 278
284 284 284 284 284 284 285 285 285 285 285 285 285 285 285 285 286 286 286 286 286 287 287 287 287 287 287 287 287 287 286 286 286 286 285 285 285 284 285 285 285 286 286 287 287 288 288 288 287 287 286 286 286 285 285 286 286 286 286 286 286 286 287 287 287 287 287 287 287 287 286 286 285 285 284 284 283 282 282 281 281 280 280 279 279 279
285 285 285 285 285 285 285 285 285 285 285 286 286 286 286 287 287 287 287 288 288 288 288 288 288 288 287 287 288 287 287 287 286 286 286 286 286 286 286 286 286 287 287 288 288 288 288 288 288 287 287 287 286 286 286 286 287 287 287 287 287 287 287 288 288 288 288 287 287 287 286 286 285 285 284 284 283 283 282 282 281 281 280 280 280 279
285 285 285 285 285 285 285 285 286 286 286 286 287 287 287 288 289 289 289 289 289 289 289 289 289 288 288 288 288 288 288 288 287 287 286 287 287 287 287 287 287 288 288 289 289 289 289 289 288 288 288 287 287 287 287 288 288 288 288 288 288 288 288 288 288 288 288 288 287 287 286 286 285 285 284 284 283 283 282 282 282 281 281 281 280 280
285 285 285 285 285 286 286 286 287 287 287 288 288 288 289 290 290 291 290 290 290 290 290 289 289 289 288 288 288 289 289 289 288 288 287 288 288 288 288 288 288 289 289 289 289 289 290 289 289 289 289 288 288 288 288 288 289 289 289 289 289 289 289 289 289 289 288 288 288 287 287 286 286 285 285 284 284 283 283 283 282 282 282 281 281 281
285 286 286 286 286 287 287 288 288 288 289 289 290 290 291 291 292 292 292 291 291 291 290 290 289 289 289 289 289 289 289 289 289 288 288 289 289 289 289 289 289 290 290 290 290 290 290 290 290 290 290 289 289 289 289 289 290 290 290 290 290 290 290 290 290 289 289 288 288 287 287 286 286 286 285 285 284 284 284 283 283 282 282 282 281 281
286 286 287 287 288 288 289 290 290 291 291 292 292 293 293 293 293 293 292 292 292 292 291 291 290 290 290 290 290 290 290 289 289 289 289 290 290 290 290 290 291 291 291 291 291 291 291 291 291 291 291 291 290 290 290 290 290 291 291 291 291 291 290 290 290 290 289 289 288 288 287 287 287 286 286 285 285 284 284 284 283 283 283 282 282 282
287 288 289 289 290 290 291 292 292 293 293 294 294 294 294 294 294 294 293 293 293 293 292 292 292 291 291 292 292 292 291 290 290 290 290 291 291 291 291 292 292 292 291 292 292 292 292 292 292 292 292 292 291 291 291 291 291 291 291 291 291 291 291 291 291 290 290 289 289 288 288 288 287 287 286 286 285 285 285 284 284 283 283 283 283 282
289 290 291 291 292 292 293 293 294 294 295 295 295 295 295 295 295 295 294 294 294 294 294 293 293 293 292 293 293 293 292 292 291 291 291 292 292 292 292 293 293 293 292 292 292 293 293 293 293 293 293 293 292 292 292 292 292 292 292 292 292 292 292 291 291 291 290 290 289 289 289 288 288 287 287 286 286 285 285 285 284 284 284 284 283 283
291 292 293 293 294 294 294 295 295 295 296 296 296 296 296 296 295 295 295 295 295 294 294 294 294 294 294 294 294 294 293 293 293 292 293 293 293 294 294 294 294 294 293 293 293 293 293 293 293 293 293 293 293 293 293 293 293 293 293 293 293 293 292 292 292 291 291 291 290 290 289 289 288 288 287 287 287 286 286 285 285 285 284 284 284 283
293 294 294 294 295 295 295 295 296 296 296 296 296 296 296 296 296 296 296 295 295 295 295 295 295 295 295 295 295 295 295 294 294 293 294 294 295 295 295 295 295 294 294 294 294 294 294 294 294 294 294 294 293 293 293 294 294 294 293 293 293 293 293 293 293 292 292 291 291 291 290 290 289 289 288 288 287 287 286 286 286 285 285 285 284 284
294 295 295 295 295 296 296 296 296 296 296 296 296 296 296 296 296 296 296 296 296 296 296 296 296 296 297 297 297 297 296 295 295 295 295 295 296 296 296 295 295 295 295 295 295 295 295 295 295 294 294 294 294 294 294 294 294 294 294 294 294 294 294 293 293 293 293 292 292 291 291 291 290 290 289 289 288 288 288 287 287 286 286 285 284 284
295 295 295 296 296 296 296 296 297 297 297 297 297 297 297 297 297 297 296 296 296 296 296 296 296 296 297 297 297 297 297 296 296 295 296 296 296 296 296 296 295 295 295 295 295 295 295 295 295 295 295 295 294 294 294 294 294 294 294 294 294 294 294 294 294 293 293 293 293 292 292 291 291 291 290 290 289 289 288 288 287 287 286 285 284 283
295 295 295 296 296 296 297 297 297 297 297 297 297 297 297 297 297 297 297 297 297 297 297 297 297 297 297 297 297 297 297 296 296 296 296 296 296 296 296 295 295 295 295 295 295 295 296 296 295 295 295 295 295 295 295 295 295 295 295 295 295 295 294 294 294 294 294 293 293 293 292 292 292 291 291 291 290 290 289 289 288 288 287 286 285 284
295 295 296 296 296 296 297 297 297 297 297 297 297 297 297 297 297 297 297 297 297 297 298 298 298 298 298 298 298 297 297 296 296 296 296 296 296 295 295 295 295 295 295 295 295 295 296 296 295 295 295 295 295 295 295 295 296 296 296 295 295 295 295 295 294 294 294 294 293 293 293 292 292 292 292 291 291 290 290 289 289 288 287 286 285 284
295 295 296 296 296 297 297 297 297 297 297 298 297 297 297 297 297 297 297 297 298 298 298 298 299 299 299 299 298 297 297 296 296 295 295 295 295 295 295 295 295 295 295 295 295 295 295 295 295 295 295 295 295 295 296 296 296 296 296 296 296 296 295 295 295 295 294 294 294 293 293 293 292 292 292 291 291 291 290 290 289 289 288 287 286 285
295 296 296 296 297 297 297 298 298 298 298 298 297 297 297 297 297 297 297 298 298 298 298 299 299 299 299 298 298 297 296 296 295 295 295 295 295 295 295 295 294 295 295 295 295 295 295 295 295 295 295 295 296 296 296 296 296 296 297 297 297 296 296 296 295 295 295 294 294 294 293 293 293 292 292 291 291 291 290 290 290 289 288 288 287 286
296 296 297 297 297 297 298 298 298 298 298 298 298 297 297 297 298 298 298 299 299 299 299 299 299 299 298 298 297 296 295 295 295 295 295 295 295 294 294 294 294 295 295 295 295 295 295 295 295 295 296 296 296 296 296 297 297 297 297 297 297 297 296 296 296 295 295 295 294 294 294 293 293 292 292 292 291 291 291 291 290 290 289 288 288 287
297 297 297 298 298 298 298 298 298 298 298 298 298 298 298 298 299 299 300 300 300 299 299 299 299 298 298 297 296 295 294 294 294 294 294 294 294 294 294 294 294 295 295 295 295 295 295 296 296 296 296 296 296 297 297 297 297 297 297 297 297 297 297 296 296 296 295 295 295 294 294 293 293 292 292 292 292 292 291 291 291 290 289 289 288 287
297 297 298 298 298 298 298 298 298 298 298 298 298 298 298 299 299 300 300 300 300 299 299 298 298 297 297 296 295 294 294 294 294 294 294 294 294 294 294 294 294 294 295 295 295 295 296 296 296 296 296 296 297 297 297 297 297 297 297 297 297 297 297 296 296 296 295 295 294 294 293 293 293 292 292 292 292 292 292 291 291 290 290 289 289 288
298 298 298 298 298 298 298 298 298 298 298 298 299 299 299 300 300 300 300 299 298 298 297 297 297 296 295 294 293 293 293 293 293 293 293 293 294 294 294 294 294 294 295 295 295 295 296 296 296 296 297 297 297 297 297 298 298 297 297 297 297 297 296 296 296 295 295 295 294 294 293 293 293 293 293 293 293 292 292 292 292 291 291 290 290 289
298 298 298 298 298 298 298 298 298 298 299 299 299 300 300 300 300 299 299 298 297 297 296 296 295 295 294 293 292 292 292 292 293 293 293 293 293 293 294 294 294 294 295 295 295 296 296 296 297 297 297 297 297 297 298 298 298 297 297 297 296 296 296 295 295 295 294 294 294 294 293 293 293 293 293 293 293 293 293 293 293 292 292 292 291 291
297 298 298 298 298 298 298 298 298 299 299 300 300 300 300 299 299 298 297 296 296 295 295 295 294 293 292 292 291 291 291 292 292 292 293 293 293 293 293 294 294 294 295 295 295 296 296 296 297 297 297 297 297 297 297 297 297 297 297 297 296 296 295 295 294 294 294 293 293 293 293 294 293 294 294 294 294 294 294 294 294 293 293 293 293 293
297 297 297 297 298 298 298 298 299 299 300 300 300 299 299 298 297 296 296 295 294 294 294 293 292 291 291 290 290 290 291 291 291 292 292 292 293 293 293 294 294 294 295 295 296 296 296 297 297 297 297 297 297 297 297 297 297 297 296 296 296 295 295 294 294 293 293 293 293 293 293 293 293 294 294 294 294 294 295 295 294 294 294 294 294 294
297 297 297 297 298 298 298 299 299 299 300 299 299 298 297 296 295 295 294 294 293 293 293 292 291 290 290 290 290 290 290 290 290 291 291 292 292 293 293 294 294 294 295 295 296 296 296 297 297 297 297 297 297 297 297 297 297 296 296 295 295 294 294 293 293 293 293 293 293 293 293 293 293 293 294 294 294 295 295 295 295 294 294 294 294 294
297 297 297 298 298 298 298 299 299 299 299 298 297 296 295 294 294 293 293 292 292 292 291 291 290 290 289 289 289 289 289 290 290 290 291 291 292 292 293 293 294 294 295 295 296 296 297 297 297 297 297 297 297 297 297 297 296 296 295 295 294 294 293 293 293 293 293 293 293 293 293 293 293 293 294 294 294 295 295 295 295 294 294 294 294 294
297 297 297 298 298 298 298 298 298 297 297 296 295 294 293 293 292 292 292 291 291 291 290 290 289 289 288 289 289 289 289 289 290 290 290 291 292 292 293 293 294 294 295 295 296 296 297 297 297 297 297 297 297 297 296 296 296 295 295 294 294 293 293 293 293 293 293 293 293 293 293 293 294 294 294 294 294 294 294 294 294 294 293 293 293 293
297 297 297 297 297 297 297 297 296 295 294 294 293 292 292 292 291 291 291 290 290 290 289 289 288 288 288 288 288 288 289 289 289 290 290 291 292 292 293 293 294 294 295 295 296 296 296 296 297 297 297 296 296 296 296 295 295 295 294 294 294 293 293 293 293 293 294 294 294 294 294 294 294 294 294 294 294 294 293 293 293 293 293 293 293 293
Height
10535 10534 10533 10532 10531 10529 10527 10526 10526 10525 10523 10522 10520 10518 10517 10516 10514 10512 10510 10509 10508 10507 10505 10503 10502 10500 10499 10497 10496 10494 10492 10490 10488 10487 10485 10482 10480 10477 10475 10472 10469 10467 10464 10462 10460 10459 10457 10456 10455 10453 10452 10450 10449 10448 10447 10446 10445 10443 10442 10441 10440 10438 10437 10436 10435 10433 10433 10432 10432 10431 10430 10430 10430 10429 10428 10428 10428 10428 10427 10427 10427 10425 10425 10424 10423 10422
10530 10528 10527 10526 10525 10523 10520 10519 10519 10518 10517 10515 10513 10512 10510 10508 10506 10504 10502 10501 10500 10498 10497 10495 10493 10492 10491 10489 10487 10486 10484 10482 10480 10478 10476 10473 10471 10468 10465 10462 10460 10457 10453 10451 10449 10447 10445 10444 10442 10441 10440 10438 10437 10436 10435 10433 10432 10431 10430 10428 10427 10426 10425 10423 10422 10422 10420 10420 10420 10419 10419 10418 10419 10418 10418 10418 10418 10418 10417 10417 10415 10415 10414 10413 10412 10410
10523 10522 10520 10519 10518 10517 10515 10513 10512 10512 10510 10508 10507 10505 10503 10501 10499 10497 10495 10493 10492 10490 10488 10487 10485 10484 10482 10481 10479 10478 10476 10474 10472 10470 10467 10465 10462 10460 10457 10453 10450 10447 10443 10440 10438 10435 10433 10432 10430 10428 10427 10426 10424 10423 10422 10420 10419 10418 10417 10415 10414 10413 10412 10410 10410 10409 10408 10408 10408 10408 10408 10408 10408 10408 10408 10408 10407 10407 10406 10405 10404 10403 10402 10401 10399 10398
10517 10516 10514 10513 10512 10510 10508 10507 10505 10505 10503 10502 10500 10498 10497 10495 10492 10490 10488 10487 10485 10483 10480 10479 10478 10477 10475 10473 10472 10470 10468 10466 10464 10462 10459 10457 10454 10451 10448 10445 10441 10437 10434 10430 10427 10425 10422 10420 10418 10416 10414 10413 10412 10410 10408 10407 10406 10405 10403 10402 10400 10400 10398 10397 10397 10396 10396 10395 10395 10395 10395 10396 10396 10396 10396 10396 10395 10395 10394 10393 10392 10390 10389 10388 10387 10385
10511 10510 10508 10507 10506 10504 10502 10501 10500 10498 10497 10495 10494 10492 10490 10488 10486 10484 10482 10480 10478 10476 10474 10472 10471 10469 10468 10466 10464 10462 10460 10458 10457 10454 10452 10449 10446 10443 10440 10437 10433 10429 10425 10422 10418 10414 10412 10408 10406 10404 10402 10400 10398 10397 10395 10393 10392 10391 10390 10388 10387 10386 10385 10384 10383 10383 10383 10383 10383 10383 10383 10383 10383 10383 10383 10383 10383 10382 10381 10379 10378 10377 10376 10374 10373 10372
10504 10503 10502 10501 10499 10497 10495 10494 10493 10492 10490 10489 10487 10485 10483 10482 10480 10478 10476 10474 10472 10470 10468 10466 10465 10463 10461 10460 10458 10456 10454 10452 10450 10447 10444 10442 10438 10435 10432 10428 10425 10421 10417 10413 10409 10405 10402 10399 10396 10393 10391 10389 10387 10385 10382 10381 10379 10378 10377 10375 10374 10373 10372 10371 10371 10370 10370 10370 10370 10370 10370 10370 10370 10370 10370 10370 10369 10368 10367 10365 10364 10363 10362 10360 10359 10358
10498 10497 10496 10495 10493 10491 10490 10488 10486 10485 10484 10483 10480 10478 10477 10475 10473 10472 10470 10468 10466 10464 10462 10460 10458 10457 10455 10453 10452 10450 10448 10445 10443 10440 10438 10435 10432 10429 10425 10422 10418 10414 10410 10406 10402 10398 10394 10391 10388 10385 10382 10379 10376 10373 10371 10369 10367 10365 10364 10362 10362 10360 10359 10358 10358 10358 10358 10358 10358 10358 10358 10357 10357 10357 10357 10356 10355 10354 10353 10352 10351 10349 10348 10347 10345 10344
10491 10490 10489 10488 10487 10484 10483 10481 10479 10478 10477 10476 10474 10472 10470 10468 10467 10465 10463 10462 10460 10458 10457 10455 10453 10451 10449 10447 10445 10443 10442 10439 10437 10434 10432 10428 10426 10422 10419 10415 10411 10407 10403 10399 10395 10391 10387 10383 10380 10377 10373 10370 10367 10363 10361 10358 10356 10354 10352 10351 10350 10348 10348 10347 10347 10346 10346 10346 10346 10346 10345 10345 10345 10344 10343 10343 10342 10341 10340 10339 10338 10337 10335 10334 10332 10331
10485 10483 10482 10481 10480 10478 10476 10473 10472 10471 10470 10469 10467 10465 10463 10462 10460 10458 10457 10455 10453 10451 10450 10448 10447 10445 10442 10441 10439 10437 10435 10432 10430 10428 10425 10422 10418 10415 10412 10408 10404 10400 10396 10392 10388 10383 10380 10375 10372 10368 10365 10362 10358 10355 10352 10349 10346 10344 10342 10340 10339 10338 10337 10336 10335 10335 10335 10335 10335 10334 10333 10333 10332 10332 10331 10330 10329 10328 10327 10327 10325 10324 10323 10322 10320 10318
10478 10477 10475 10473 10472 10472 10470 10467 10464 10463 10463 10462 10460 10458 10457 10456 10454 10452 10451 10448 10446 10444 10443 10442 10440 10438 10435 10433 10432 10430 10428 10425 10422 10420 10418 10415 10411 10408 10404 10401 10397 10393 10389 10385 10380 10376 10372 10368 10364 10360 10357 10353 10350 10346 10343 10340 10337 10335 10333 10331 10330 10328 10327 10327 10326 10325 10325 10324 10323 10323 10322 10322 10320 10320 10318 10317 10317 10315 10315 10314 10313 10312 10310 10309 10308 10306
10471 10470 10469 10467 10465 10463 10463 10460 10458 10456 10455 10454 10452 10450 10450 10448 10448 10447 10445 10442 10439 10438 10437 10435 10433 10431 10428 10426 10423 10422 10420 10418 10415 10412 10410 10407 10403 10400 10396 10393 10389 10385 10381 10377 10372 10368 10363 10359 10355 10352 10348 10345 10341 10337 10334 10332 10328 10326 10324 10322 10321 10320 10318 10318 10317 10317 10315 10315 10314 10313 10312 10311 10310 10308 10307 10306 10305 10304 10303 10302 10301 10300 10298 10297 10295 10293
10463 10462 10462 10460 10458 10456 10454 10453 10451 10450 10448 10447 10445 10443 10441 10440 10440 10440 10438 10435 10433 10431 10430 10428 10426 10423 10421 10418 10415 10413 10412 10410 10408 10405 10402 10398 10395 10392 10388 10384 10380 10377 10372 10368 10363 10358 10354 10350 10347 10343 10339 10335 10332 10328 10325 10323 10320 10318 10315 10314 10312 10312 10310 10309 10308 10307 10307 10305 10305 10303 10302 10301 10300 10298 10297 10296 10295 10293 10292 10291 10290 10288 10287 10285 10283 10282
10456 10455 10454 10452 10450 10448 10447 10445 10443 10442 10440 10438 10437 10435 10433 10432 10432 10432 10430 10428 10426 10424 10423 10421 10418 10415 10413 10410 10408 10405 10403 10402 10399 10397 10394 10390 10387 10383 10380 10376 10372 10367 10363 10359 10354 10349 10345 10341 10337 10333 10329 10326 10323 10320 10316 10313 10312 10309 10307 10305 10304 10303 10302 10300 10299 10298 10297 10296 10295 10293 10293 10292 10290 10289 10287 10286 10285 10283 10282 10281 10279 10278 10276 10274 10272 10270
10448 10447 10447 10445 10442 10440 10438 10437 10436 10434 10432 10430 10429 10428 10426 10425 10423 10423 10422 10420 10418 10417 10416 10414 10411 10407 10404 10402 10399 10397 10395 10393 10391 10388 10386 10382 10378 10374 10370 10367 10362 10358 10354 10350 10345 10339 10335 10332 10328 10324 10320 10317 10313 10310 10307 10304 10302 10300 10298 10297 10295 10294 10293 10291 10290 10288 10287 10286 10285 10284 10283 10282 10280 10279 10278 10277 10275 10273 10272 10270 10268 10267 10265 10263 10261 10259
10441 10440 10438 10437 10434 10432 10431 10429 10428 10426 10423 10422 10421 10420 10418 10417 10415 10414 10413 10412 10410 10408 10408 10406 10403 10400 10397 10393 10390 10387 10385 10383 10382 10380 10377 10373 10369 10365 10361 10357 10352 10348 10345 10341 10336 10330 10325 10322 10319 10315 10310 10307 10303 10300 10298 10295 10293 10291 10289 10288 10286 10285 10283 10282 10280 10278 10277 10276 10275 10274 10273 10272 10271 10270 10268 10267 10265 10263 10262 10260 10258 10257 10255 10252 10250 10248
10433 10432 10430 10428 10426 10424 10422 10421 10420 10418 10415 10414 10413 10412 10410 10408 10407 10405 10405 10403 10402 10400 10399 10397 10394 10391 10387 10384 10382 10379 10377 10374 10372 10370 10368 10365 10359 10354 10350 10347 10343 10338 10334 10331 10327 10321 10315 10312 10309 10306 10302 10298 10294 10291 10288 10285 10283 10281 10279 10278 10276 10275 10273 10272 10270 10268 10267 10266 10265 10264 10263 10262 10262 10260 10259 10257 10256 10254 10252 10250 10248 10246 10244 10242 10240 10238
10425 10423 10422 10420 10418 10416 10414 10412 10411 10409 10407 10406 10405 10403 10402 10400 10398 10397 10396 10395 10393 10392 10390 10388 10386 10383 10378 10375 10372 10370 10368 10365 10362 10360 10358 10356 10350 10344 10340 10337 10333 10328 10323 10320 10317 10312 10307 10303 10300 10297 10292 10289 10285 10282 10278 10275 10273 10271 10269 10267 10266 10264 10263 10261 10260 10258 10257 10256 10255 10255 10254 10253 10252 10250 10249 10248 10246 10244 10242 10240 10238 10236 10233 10231 10229 10227
10417 10415 10414 10412 10410 10408 10406 10404 10402 10400 10399 10398 10397 10395 10393 10392 10390 10388 10387 10386 10384 10383 10380 10378 10377 10375 10371 10367 10362 10358 10358 10357 10353 10350 10348 10346 10342 10335 10330 10327 10323 10318 10314 10311 10307 10302 10298 10295 10292 10287 10283 10280 10275 10272 10268 10265 10262 10260 10258 10257 10255 10254 10253 10251 10250 10248 10247 10247 10246 10245 10244 10243 10242 10241 10240 10238 10236 10235 10233 10230 10228 10226 10223 10221 10219 10217
10408 10407 10406 10403 10402 10400 10398 10395 10393 10392 10390 10389 10388 10387 10385 10383 10381 10380 10379 10377 10375 10373 10372 10370 10367 10364 10362 10358 10353 10349 10347 10347 10344 10340 10338 10336 10332 10326 10320 10316 10313 10309 10305 10301 10297 10293 10289 10286 10283 10278 10275 10270 10265 10262 10258 10255 10252 10250 10248 10247 10245 10244 10242 10241 10240 10238 10238 10237 10236 10235 10235 10233 10232 10231 10230 10228 10226 10225 10223 10221 10218 10216 10213 10211 10210 10208
10400 10398 10397 10395 10393 10391 10389 10387 10385 10383 10382 10381 10380 10378 10377 10375 10373 10372 10370 10368 10367 10365 10363 10361 10358 10355 10352 10349 10344 10340 10337 10336 10334 10331 10327 10326 10323 10317 10310 10307 10303 10300 10295 10292 10288 10284 10281 10277 10273 10269 10265 10260 10255 10251 10247 10244 10242 10240 10239 10238 10236 10235 10233 10231 10230 10229 10228 10228 10227 10226 10225 10224 10223 10221 10220 10218 10216 10215 10213 10211 10209 10206 10204 10201 10200 10198
10392 10390 10387 10386 10385 10383 10380 10377 10376 10375 10373 10372 10371 10370 10368 10367 10365 10363 10362 10360 10358 10355 10353 10352 10349 10345 10342 10339 10334 10329 10326 10325 10323 10320 10316 10315 10313 10308 10302 10297 10294 10290 10286 10282 10279 10275 10273 10269 10265 10260 10255 10250 10245 10241 10237 10235 10233 10231 10230 10229 10227 10225 10224 10222 10221 10220 10220 10218 10218 10216 10216 10214 10213 10211 10210 10208 10207 10205 10203 10201 10199 10196 10195 10193 10191 10189
10384 10382 10378 10377 10377 10375 10372 10369 10367 10366 10365 10364 10363 10361 10359 10358 10357 10355 10352 10351 10349 10347 10344 10342 10339 10336 10333 10329 10324 10319 10316 10314 10312 10308 10306 10304 10302 10298 10293 10289 10285 10282 10277 10273 10270 10267 10264 10260 10256 10250 10245 10240 10235 10231 10228 10226 10224 10223 10222 10220 10218 10217 10215 10214 10213 10211 10211 10210 10209 10208 10206 10205 10203 10202 10200 10199 10197 10195 10193 10191 10190 10188 10186 10184 10182 10180
10377 10373 10371 10369 10368 10366 10363 10362 10359 10357 10356 10355 10354 10352 10350 10350 10348 10346 10343 10342 10340 10337 10335 10332 10330 10327 10323 10319 10315 10310 10305 10302 10300 10298 10295 10293 10291 10287 10283 10280 10277 10273 10269 10265 10263 10260 10256 10252 10246 10240 10235 10230 10225 10221 10219 10217 10216 10215 10214 10212 10210 10208 10207 10206 10205 10203 10203 10201 10200 10198 10197 10195 10194 10192 10191 10190 10188 10186 10184 10182 10181 10179 10177 10175 10173 10172
10368 10366 10363 10362 10359 10357 10355 10353 10351 10349 10348 10347 10345 10343 10342 10341 10340 10337 10335 10332 10330 10327 10325 10322 10320 10317 10313 10309 10305 10300 10295 10292 10289 10287 10284 10282 10280 10277 10274 10270 10267 10263 10260 10257 10255 10252 10248 10242 10236 10230 10225 10220 10216 10213 10211 10210 10208 10207 10206 10204 10202 10200 10199 10198 10196 10196 10195 10193 10191 10190 10188 10186 10185 10183 10181 10180 10178 10176 10175 10173 10172 10170 10169 10167 10165 10163
10359 10357 10355 10353 10351 10349 10347 10345 10343 10341 10339 10338 10336 10335 10333 10332 10330 10328 10325 10323 10320 10317 10315 10313 10310 10307 10302 10299 10295 10291 10285 10281 10278 10276 10273 10271 10268 10266 10263 10261 10258 10255 10252 10248 10247 10244 10238 10232 10226 10220 10215 10211 10207 10205 10203 10202 10201 10200 10198 10196 10194 10193 10191 10190 10189 10188 10186 10185 10183 10181 10180 10178 10176 10174 10173 10171 10170 10168 10166 10165 10163 10162 10161 10159 10157 10155
10351 10349 10347 10345 10342 10340 10338 10336 10334 10332 10330 10329 10327 10325 10323 10322 10320 10317 10315 10312 10310 10308 10306 10302 10299 10296 10293 10290 10287 10282 10275 10271 10267 10265 10263 10262 10258 10255 10252 10250 10249 10247 10243 10240 10238 10235 10229 10222 10216 10211 10206 10203 10199 10197 10196 10195 10193 10192 10190 10188 10186 10185 10183 10182 10181 10180 10178 10176 10175 10173 10171 10169 10167 10166 10164 10163 10161 10160 10158 10157 10156 10155 10153 10151 10150 10148
10342 10341 10338 10337 10334 10332 10330 10328 10326 10324 10322 10320 10318 10316 10315 10313 10310 10307 10304 10301 10300 10298 10295 10292 10288 10285 10282 10280 10277 10273 10267 10262 10257 10254 10253 10252 10250 10246 10242 10240 10239 10237 10235 10231 10229 10225 10220 10213 10206 10202 10198 10195 10191 10190 10188 10187 10186 10184 10182 10180 10178 10177 10176 10175 10173 10172 10170 10168 10166 10165 10163 10161 10159 10158 10156 10155 10153 10151 10150 10149 10148 10146 10145 10143 10141 10140
10334 10332 10330 10328 10325 10323 10321 10319 10317 10315 10313 10311 10308 10307 10305 10303 10301 10297 10293 10290 10289 10288 10285 10281 10278 10275 10273 10270 10267 10264 10259 10253 10247 10243 10242 10242 10240 10236 10233 10231 10229 10228 10225 10223 10220 10216 10210 10204 10198 10193 10190 10187 10184 10182 10181 10180 10178 10176 10175 10173 10171 10170 10168 10167 10166 10164 10162 10160 10158 10156 10155 10153 10151 10150 10148 10146 10145 10144 10143 10141 10140 10139 10138 10136 10134 10132
10326 10324 10322 10319 10317 10315 10312 10310 10308 10306 10304 10302 10299 10297 10295 10293 10291 10287 10283 10280 10278 10277 10273 10270 10267 10265 10263 10261 10258 10255 10251 10245 10238 10235 10233 10233 10230 10226 10224 10223 10220 10218 10216 10213 10210 10206 10202 10196 10190 10185 10182 10180 10177 10175 10173 10172 10171 10169 10167 10165 10163 10162 10161 10160 10158 10156 10154 10152 10150 10148 10146 10145 10143 10142 10141 10139 10138 10136 10135 10134 10133 10132 10130 10129 10127 10125
10317 10315 10313 10310 10308 10306 10303 10301 10299 10297 10295 10292 10290 10287 10284 10282 10280 10277 10273 10270 10268 10265 10262 10259 10257 10255 10253 10251 10248 10245 10240 10235 10230 10227 10226 10224 10221 10217 10215 10213 10211 10208 10206 10204 10201 10197 10193 10188 10183 10178 10175 10171 10169 10167 10166 10165 10163 10162 10160 10158 10156 10155 10153 10151 10150 10148 10146 10144 10142 10141 10139 10138 10136 10135 10133 10131 10130 10129 10128 10127 10126 10125 10123 10121 10120 10118
10308 10306 10303 10301 10298 10297 10295 10292 10290 10288 10285 10283 10280 10277 10275 10272 10270 10267 10263 10261 10258 10255 10252 10249 10246 10244 10243 10241 10238 10235 10229 10223 10220 10218 10218 10216 10213 10209 10208 10205 10201 10198 10196 10195 10193 10189 10185 10180 10175 10171 10167 10163 10161 10160 10158 10157 10156 10155 10153 10151 10149 10147 10146 10144 10142 10140 10138 10136 10135 10133 10131 10130 10128 10127 10126 10125 10123 10122 10121 10120 10119 10118 10116 10115 10113 10110
10298 10297 10294 10292 10290 10288 10285 10283 10281 10279 10277 10274 10271 10268 10266 10263 10260 10257 10253 10251 10248 10245 10242 10239 10236 10234 10232 10231 10229 10225 10220 10215 10210 10208 10208 10207 10204 10201 10200 10197 10193 10189 10186 10185 10184 10181 10178 10173 10168 10164 10160 10156 10153 10151 10150 10150 10149 10148 10146 10144 10142 10140 10138 10136 10135 10133 10130 10128 10127 10125 10124 10123 10121 10120 10118 10117 10116 10115 10113 10113 10111 10110 10109 10107 10105 10103
10290 10287 10285 10283 10281 10279 10277 10275 10273 10270 10268 10265 10263 10260 10257 10254 10251 10247 10244 10241 10238 10235 10233 10230 10226 10224 10221 10220 10218 10215 10211 10206 10202 10199 10198 10198 10196 10193 10191 10188 10185 10181 10178 10176 10175 10173 10171 10167 10163 10158 10154 10150 10146 10144 10143 10143 10142 10141 10139 10137 10135 10133 10131 10130 10127 10125 10123 10121 10120 10118 10116 10115 10113 10112 10111 10110 10109 10108 10106 10105 10104 10103 10101 10100 10098 10096
10281 10278 10277 10274 10272 10270 10268 10267 10265 10262 10260 10257 10254 10252 10248 10245 10242 10238 10235 10231 10229 10226 10224 10221 10218 10215 10213 10210 10207 10204 10201 10197 10193 10191 10190 10190 10188 10185 10183 10180 10176 10173 10170 10168 10166 10164 10162 10160 10156 10153 10148 10144 10140 10138 10136 10136 10135 10133 10131 10130 10128 10126 10124 10122 10120 10118 10116 10113 10112 10110 10108 10107 10106 10105 10103 10103 10101 10100 10099 10098 10096 10095 10094 10093 10091 10090
10272 10270 10268 10266 10264 10262 10260 10258 10256 10253 10251 10248 10246 10243 10240 10236 10233 10230 10226 10223 10220 10217 10215 10212 10210 10208 10205 10202 10198 10195 10191 10187 10184 10183 10181 10181 10180 10177 10175 10171 10168 10165 10163 10160 10158 10156 10154 10151 10149 10146 10143 10138 10134 10131 10130 10130 10128 10126 10125 10123 10121 10120 10118 10116 10113 10111 10108 10106 10105 10103 10101 10100 10098 10097 10096 10095 10093 10092 10091 10090 10089 10088 10086 10085 10084 10083
10263 10261 10259 10258 10256 10254 10252 10249 10247 10245 10243 10240 10237 10235 10231 10228 10225 10221 10218 10215 10212 10209 10206 10203 10201 10199 10196 10194 10191 10188 10183 10179 10176 10175 10173 10172 10171 10170 10166 10163 10160 10158 10156 10153 10151 10150 10148 10144 10141 10138 10136 10132 10128 10125 10123 10123 10121 10120 10118 10116 10115 10113 10111 10109 10107 10105 10102 10100 10098 10096 10094 10092 10091 10090 10088 10087 10086 10085 10083 10082 10081 10080 10078 10078 10076 10075
10255 10253 10251 10249 10248 10246 10243 10241 10238 10236 10234 10231 10228 10225 10223 10220 10216 10213 10210 10207 10204 10201 10198 10195 10192 10190 10187 10185 10182 10180 10176 10173 10170 10168 10166 10165 10164 10162 10159 10155 10153 10151 10150 10147 10145 10143 10141 10138 10135 10131 10128 10126 10123 10120 10118 10116 10115 10113 10111 10109 10108 10106 10105 10103 10101 10098 10096 10093 10091 10089 10087 10085 10084 10083 10081 10080 10079 10077 10076 10075 10073 10072 10071 10070 10068 10068
10247 10245 10243 10241 10239 10237 10235 10233 10230 10228 10226 10223 10220 10217 10214 10211 10208 10205 10203 10200 10196 10193 10190 10188 10185 10181 10178 10176 10173 10170 10167 10165 10163 10161 10159 10158 10156 10155 10152 10148 10145 10143 10142 10141 10139 10136 10135 10132 10129 10125 10121 10118 10116 10114 10112 10110 10108 10106 10103 10102 10101 10100 10098 10096 10094 10092 10090 10087 10085 10083 10080 10079 10077 10076 10075 10073 10071 10070 10069 10067 10066 10065 10063 10062 10061 10060
10238 10236 10235 10233 10231 10229 10227 10224 10221 10220 10217 10215 10212 10209 10206 10203 10200 10198 10195 10192 10189 10186 10183 10180 10178 10175 10171 10168 10164 10161 10158 10156 10155 10154 10153 10151 10149 10147 10145 10141 10138 10136 10135 10133 10132 10131 10128 10126 10123 10120 10116 10113 10110 10108 10106 10105 10103 10100 10097 10095 10093 10092 10091 10090 10088 10086 10083 10081 10078 10076 10074 10072 10070 10069 10068 10066 10065 10064 10062 10061 10060 10058 10056 10055 10054 10053
10230 10228 10226 10224 10222 10220 10218 10216 10213 10211 10209 10206 10203 10201 10198 10196 10193 10190 10187 10185 10181 10179 10176 10173 10171 10168 10165 10161 10157 10153 10151 10149 10148 10147 10146 10144 10141 10140 10138 10135 10132 10130 10128 10126 10125 10124 10122 10120 10116 10113 10111 10107 10104 10101 10100 10098 10096 10095 10092 10089 10086 10085 10084 10083 10081 10079 10077 10075 10073 10070 10068 10066 10064 10063 10061 10060 10059 10058 10056 10055 10053 10052 10050 10049 10047 10046
10221 10219 10217 10215 10213 10211 10210 10208 10205 10203 10201 10198 10195 10192 10190 10187 10185 10182 10179 10176 10173 10171 10168 10166 10164 10161 10157 10153 10150 10146 10145 10143 10141 10140 10139 10137 10135 10133 10130 10128 10126 10123 10121 10120 10118 10117 10116 10113 10110 10107 10105 10101 10099 10096 10094 10092 10091 10089 10087 10084 10081 10078 10077 10076 10074 10073 10070 10068 10066 10064 10061 10060 10058 10056 10055 10054 10053 10052 10051 10050 10048 10046 10045 10043 10041 10040
10213 10211 10208 10206 10205 10203 10201 10199 10197 10195 10192 10190 10187 10185 10181 10179 10177 10175 10171 10168 10165 10163 10160 10159 10156 10154 10150 10145 10141 10139 10137 10136 10135 10133 10132 10130 10128 10126 10124 10121 10120 10118 10116 10114 10112 10110 10109 10107 10105 10101 10098 10096 10093 10090 10088 10086 10085 10083 10081 10079 10076 10073 10071 10068 10067 10066 10064 10061 10060 10058 10056 10053 10051 10050 10048 10048 10047 10046 10046 10045 10043 10041 10039 10037 10036 10035
10204 10202 10200 10198 10196 10195 10193 10191 10188 10186 10184 10181 10179 10176 10173 10171 10170 10167 10164 10161 10158 10156 10153 10152 10150 10147 10144 10139 10135 10131 10130 10129 10128 10127 10126 10124 10122 10120 10117 10115 10113 10111 10110 10108 10106 10104 10102 10101 10098 10095 10093 10090 10088 10085 10083 10080 10078 10077 10075 10073 10071 10068 10065 10062 10061 10059 10058 10055 10054 10052 10050 10048 10046 10044 10043 10042 10041 10041 10040 10039 10037 10035 10033 10032 10030 10029
10195 10194 10192 10190 10189 10187 10185 10183 10180 10178 10176 10173 10171 10168 10165 10163 10161 10160 10157 10155 10151 10150 10148 10146 10143 10141 10137 10133 10130 10126 10123 10121 10121 10120 10120 10118 10116 10113 10111 10109 10107 10105 10104 10103 10100 10098 10096 10094 10092 10090 10086 10085 10082 10080 10077 10075 10073 10071 10069 10067 10065 10063 10060 10058 10055 10053 10051 10050 10048 10046 10044 10042 10040 10038 10037 10036 10036 10035 10035 10033 10031 10030 10028 10026 10025 10024
10188 10186 10184 10183 10181 10180 10177 10175 10173 10171 10168 10166 10163 10160 10158 10156 10154 10153 10150 10148 10145 10143 10141 10139 10137 10134 10130 10126 10123 10121 10118 10116 10114 10113 10113 10111 10110 10108 10105 10103 10101 10100 10098 10096 10095 10093 10091 10088 10086 10083 10081 10078 10076 10074 10071 10070 10067 10065 10063 10061 10060 10058 10055 10053 10051 10048 10046 10044 10042 10041 10039 10037 10035 10033 10032 10031 10030 10030 10029 10028 10026 10025 10023 10021 10020 10018
10180 10178 10177 10175 10174 10172 10170 10168 10165 10163 10161 10158 10155 10153 10151 10149 10147 10145 10143 10141 10139 10136 10134 10133 10131 10128 10123 10120 10118 10115 10113 10110 10108 10107 10106 10105 10103 10101 10100 10098 10096 10094 10092 10090 10088 10086 10085 10083 10080 10078 10075 10073 10070 10068 10066 10065 10062 10060 10058 10056 10054 10052 10050 10048 10046 10044 10042 10040 10038 10036 10034 10033 10031 10029 10027 10025 10025 10024 10023 10023 10021 10020 10018 10016 10014 10013
10173 10171 10170 10168 10166 10165 10162 10160 10158 10156 10153 10151 10148 10146 10145 10143 10141 10138 10136 10134 10133 10131 10128 10126 10123 10121 10117 10115 10112 10110 10108 10105 10103 10101 10100 10098 10097 10095 10093 10091 10090 10088 10086 10085 10083 10081 10079 10077 10075 10073 10070 10067 10065 10062 10060 10058 10057 10055 10053 10050 10048 10046 10044 10042 10041 10040 10038 10036 10034 10032 10030 10029 10027 10025 10023 10021 10020 10018 10018 10017 10016 10015 10013 10011 10010 10008
10165 10163 10162 10160 10158 10156 10154 10152 10151 10149 10146 10144 10142 10140 10138 10136 10134 10132 10129 10127 10125 10124 10122 10119 10116 10113 10111 10108 10106 10105 10103 10100 10097 10095 10094 10093 10091 10090 10088 10086 10084 10082 10080 10079 10077 10075 10073 10071 10070 10067 10065 10062 10060 10056 10055 10053 10051 10050 10048 10045 10043 10041 10039 10037 10036 10035 10033 10031 10030 10028 10026 10025 10023 10021 10019 10017 10015 10014 10013 10012 10011 10010 10009 10007 10005 10003
10157 10156 10154 10153 10151 10149 10146 10145 10143 10142 10140 10138 10136 10133 10131 10129 10127 10125 10123 10121 10119 10117 10115 10113 10110 10106 10104 10102 10100 10099 10097 10095 10092 10090 10088 10087 10086 10084 10082 10080 10078 10076 10075 10073 10071 10070 10068 10066 10064 10062 10060 10057 10054 10051 10049 10047 10045 10044 10042 10040 10038 10036 10035 10033 10031 10030 10028 10027 10025 10024 10023 10021 10020 10018 10016 10013 10011 10010 10008 10008 10007 10006 10005 10003 10001 9999
10149 10148 10146 10145 10143 10141 10140 10138 10137 10135 10134 10132 10130 10127 10125 10122 10120 10118 10116 10115 10113 10111 10108 10106 10103 10101 10098 10096 10094 10093 10091 10089 10087 10085 10083 10081 10080 10078 10076 10075 10073 10071 10069 10067 10065 10064 10063 10061 10059 10057 10055 10052 10050 10046 10044 10041 10040 10038 10036 10035 10033 10032 10030 10028 10026 10025 10024 10022 10021 10019 10018 10016 10015 10013 10012 10010 10008 10006 10005 10003 10003 10001 10000 9999 9997 9995
10141 10140 10139 10138 10136 10135 10133 10132 10131 10129 10127 10125 10123 10121 10118 10115 10113 10111 10110 10108 10106 10105 10102 10100 10098 10095 10093 10090 10088 10087 10085 10083 10081 10079 10078 10076 10075 10073 10071 10069 10067 10065 10063 10061 10060 10058 10057 10056 10055 10053 10050 10048 10045 10043 10040 10037 10035 10033 10031 10030 10028 10028 10026 10024 10022 10021 10019 10018 10016 10015 10013 10011 10010 10009 10008 10006 10005 10003 10001 10000 9999 9998 9996 9995 9993 9991